Regional Weather Roundup
Issued by NWS

Home | Current Version | Previous Version | Graphics & Text | Print | Product List | Glossary On
Versions: 1 2 3 4 5 6 7 8 9 10 11 12 13 14 15 16 17 18 19 20 21 22 23 24 25 26 27 28 29 30 31 32 33 34 35 36 37 38 39 40 41 42 43 44 45 46 47 48 49 50
000
ASUS43 KIND 300909
RWRIN

WEATHER ROUNDUP FOR INDIANA
NATIONAL WEATHER SERVICE INDIANAPOLIS IN
500 AM EDT THU OCT 30 2014

NOTE: "FAIR" INDICATES FEW OR NO CLOUDS BELOW 12,000 FEET WITH NO
SIGNIFICANT WEATHER AND/OR OBSTRUCTIONS TO VISIBILITY.

* - STATION DOES NOT REPORT WEATHER SUCH AS PRECIPITATION OR FOG.

+ - STATION NOT QUALITY CONTROLLED BY THE NATIONAL WEATHER SERVICE.
    USE DATA WITH CAUTION...ESPECIALLY DEWPOINT AND RELATIVE
    HUMIDITY OBSERVATIONS.

INZ001>003-010>013-019-020-301000-
NORTHWEST INDIANA

CITY           SKY/WX    TMP DP  RH WIND       PRES   REMARKS
GARY /AIRPORT/ CLEAR     37  33  87 CALM      30.15S
KNOX *+        CLOUDY    43  34  70 W5        30.13F
LA PORTE +     CLOUDY    45  37  72 W3        30.14S
MICHIGAN CITY+ CLOUDY    43  34  70 SW3       30.13F
MONTICELLO +   CLOUDY    35  33  94 CALM      30.14S
RENSSELAER +   MOCLDY    34  34 100 W6        30.16R WCI  29
VALPARAISO     CLOUDY    40  33  76 W5        30.14S

$$

LMZ046-743>745-301000-
SOUTHERN LAKE MICHIGAN

STATION/POSITION TIME  TEMP WIND        PRES
                       AIR  DIR/SP/G
                 (UTC) (F)  (DEG/KT/KT) (MB)
MICHIGAN CITY    0900   46  170/  4/  6   N/A

$$

INZ004-005-014>016-021>024-301000-
NORTH CENTRAL INDIANA

CITY           SKY/WX    TMP DP  RH WIND       PRES   REMARKS
GOSHEN         CLOUDY    43  38  82 SW3       30.13S
LOGANSPORT +   CLOUDY    41  36  81 W3        30.15S
PERU/GRISSOM   CLOUDY    42  41  94 W2        30.14S
ROCHESTER +    CLOUDY    45  37  76 SW3       30.14S
SOUTH BEND     CLOUDY    44  37  76 SW5       30.14S
WARSAW +       CLOUDY    43  36  75 CALM      30.13S

$$

INZ006>009-017-018-025>027-301000-
NORTHEAST INDIANA

CITY           SKY/WX    TMP DP  RH WIND       PRES   REMARKS
ANGOLA *+      CLOUDY    43  37  81 CALM      30.12S
AUBURN +       CLOUDY    43  36  75 CALM      30.13S
FORT WAYNE     CLOUDY    43  36  76 W7        30.14S
HUNTINGTON +   CLOUDY   N/A N/A N/A W3        30.14R

$$

INZ028-029-035-036-043>045-051>053-301000-
WEST CENTRAL INDIANA

CITY           SKY/WX    TMP DP  RH WIND       PRES   REMARKS
GREENCASTLE +  CLEAR     34  32  93 CALM      30.16R
LAFAYETTE      CLEAR     31  31 100 W5        30.16R WCI  26
TERRE HAUTE    CLEAR     34  31  88 CALM      30.17R

$$

INZ030>032-037>040-046>048-054>057-064-065-301000-
CENTRAL INDIANA

CITY           SKY/WX    TMP DP  RH WIND       PRES   REMARKS
CP ATTERBURY + CLEAR     34  32  93 CALM      30.16R
FRANKFORT +    CLEAR    N/A N/A N/A CALM      30.16S
INDIANAPOLIS   CLEAR     37  32  82 W5        30.15R
-EAGLE CREEK   CLEAR     38  33  82 W5        30.14S
KOKOMO *+      CLOUDY    43  36  75 NW3       30.15S
MARION +       CLOUDY    42  34  74 CALM      30.15R
MT COMFORT *+  CLEAR     34  34 100 CALM      30.15R
SHELBYVILLE    CLEAR     36  32  85 CALM      30.14S
ZIONSVILLE +   CLEAR     34  31  88 CALM      30.15S

$$

INZ033-034-041-042-049-050-058-059-301000-
EAST CENTRAL INDIANA

CITY           SKY/WX    TMP DP  RH WIND       PRES   REMARKS
MUNCIE         CLOUDY    42  35  76 W5        30.14R

$$

INZ060-061-067>069-081>083-085>088-301000-
SOUTHWEST INDIANA

CITY           SKY/WX    TMP DP  RH WIND       PRES   REMARKS
EVANSVILLE     CLEAR     38  35  89 CALM      30.17S
HUNTINGBURG *+ CLEAR     37  34  87 CALM      30.16F
WASHINGTON +   CLEAR     35  35  99 CALM      30.16S

$$

INZ062-063-066-070>080-084-089>092-301000-
SOUTH CENTRAL AND SOUTHEAST INDIANA

CITY           SKY/WX    TMP DP  RH WIND       PRES   REMARKS
BLOOMINGTON    CLEAR     33  32  96 CALM      30.15S
SEYMOUR +      CLEAR     39  36  87 CALM      30.15

$$




USA.gov is the U.S. government's official web portal to all federal, state and local government web resources and services.